Weather in Burlington

United States     44°28′33″N   73°12′21″W
temp.,
°C
wind,
m/s
gust,
m/s
humid.,
%
clouds,
%
prec.,
mm/h
press.,
hPa
HPBL,
m
16 may, sun
sun1623:00+13ese118299 0.5 102211
02:00+11s238242 0.6 102239
05:00+10s338447 0.0 102375
08:00+10sse458078 0.0 1024202
11:00+14s22725 0.1 1024245
14:00+14wnw227114 2.3 1023387
17:00+16sw22735 1.4 1021190
20:00+13n118976 2.8 102314
17 may, mon
mon1723:00+12s4590100 0.1 102499
02:00+10sse46936 0.1 1024159
05:00+9sse339179 0.0 1024113
08:00+11s33875 0.0 1026186
11:00+14ssw33764 0.0 1025288
14:00+17s34650 0.0 1023266
17:00+15nnw348295 1.6 1023141
20:00+14ssw348598 1.8 102369
18 may, tue
tue1823:00+12s4685100 0.0 1023109
02:00+11sse4788100 0.0 1023144
05:00+11sse349073 0.1 102496
08:00+12s448798 0.2 1024154
11:00+15ese117899 0.1 1024179
14:00+17nne256597 0.1 1023331
17:00+17nne3872100 0.1 1022263
20:00+15sw117698 0.1 102311
19 may, wed
wed1923:00+13s228598 0.0 102318
02:00+12s2289100 0.0 102418
05:00+12ssw229029 0.0 102521
08:00+13s22855 0.0 102692
11:00+16se11776 0.0 1026190
14:00+17w12713 0.0 1025287
17:00+19nnw12692 0.0 1024153
20:00+18s11740 0.0 102511
20 may, thu
thu2023:00+16s22831 0.0 102513
02:00+15s33880 0.0 102613
05:00+14s22900 0.0 102713
08:00+15s34860 0.0 102890
11:00+19s34804 0.0 1028178
14:00+22s4563100 0.0 1026270
17:00+21sw1368100 0.0 102595
20:00+19nw2279100 0.1 102512